Precipitable_Water
0.58 0.57 0.56 0.57 0.58 0.59 0.58 0.57 0.56 0.54 0.54 0.52 0.50 0.46 0.40 0.37 0.37 0.40 0.47 0.55 0.62 0.66 0.65 0.66 0.71 0.76 0.82 0.95 1.02 1.04 1.20 1.31 1.25
0.55 0.56 0.56 0.57 0.59 0.61 0.60 0.57 0.55 0.54 0.53 0.52 0.50 0.44 0.40 0.39 0.39 0.39 0.45 0.54 0.59 0.63 0.63 0.63 0.66 0.68 0.70 0.69 0.72 0.76 0.80 0.95 1.26
0.53 0.54 0.56 0.57 0.57 0.58 0.56 0.55 0.53 0.52 0.51 0.49 0.47 0.44 0.40 0.41 0.42 0.46 0.50 0.57 0.62 0.64 0.61 0.63 0.66 0.69 0.73 0.75 0.76 0.73 0.71 0.75 0.82
0.53 0.55 0.57 0.57 0.55 0.55 0.55 0.53 0.50 0.50 0.49 0.48 0.46 0.46 0.41 0.43 0.46 0.50 0.55 0.60 0.64 0.62 0.63 0.64 0.65 0.67 0.70 0.76 0.74 0.76 0.73 0.70 0.73
0.49 0.53 0.54 0.53 0.52 0.54 0.53 0.51 0.47 0.46 0.48 0.49 0.51 0.48 0.42 0.45 0.49 0.54 0.61 0.65 0.65 0.62 0.61 0.62 0.65 0.68 0.74 0.71 0.72 0.72 0.70 0.68 0.70
0.49 0.52 0.52 0.50 0.51 0.51 0.50 0.47 0.45 0.42 0.47 0.52 0.52 0.49 0.45 0.45 0.49 0.57 0.66 0.76 0.75 0.69 0.66 0.65 0.70 0.74 0.72 0.74 0.77 0.79 0.76 0.73 0.71
0.51 0.50 0.49 0.48 0.48 0.47 0.45 0.43 0.41 0.40 0.47 0.52 0.53 0.50 0.48 0.48 0.51 0.63 0.69 0.82 0.97 0.95 0.90 0.87 0.82 0.78 0.76 0.76 0.79 0.80 0.74 0.73 0.76
0.50 0.47 0.46 0.47 0.46 0.42 0.40 0.38 0.38 0.39 0.47 0.53 0.54 0.53 0.52 0.52 0.54 0.66 0.74 0.75 0.75 0.77 0.75 0.79 0.74 0.72 0.94 0.90 0.86 0.80 0.82 0.75 0.69
0.49 0.45 0.45 0.46 0.45 0.41 0.39 0.38 0.38 0.39 0.47 0.53 0.54 0.54 0.55 0.56 0.60 0.66 0.68 0.71 0.76 0.75 0.75 0.75 0.75 0.77 0.84 0.98 0.93 0.89 0.80 0.76 0.78
0.49 0.46 0.46 0.46 0.45 0.42 0.39 0.38 0.37 0.38 0.46 0.53 0.55 0.56 0.58 0.59 0.60 0.63 0.63 0.64 0.67 0.72 0.76 0.77 0.78 0.78 0.81 0.80 0.78 0.81 0.81 0.77 0.77
0.49 0.46 0.45 0.45 0.46 0.43 0.40 0.38 0.38 0.37 0.43 0.50 0.56 0.57 0.58 0.57 0.56 0.56 0.58 0.58 0.62 0.69 0.70 0.73 0.73 0.75 0.78 0.86 1.02 0.88 0.79 0.83 0.83
0.50 0.48 0.45 0.46 0.46 0.42 0.40 0.39 0.39 0.37 0.40 0.48 0.54 0.56 0.58 0.56 0.55 0.56 0.56 0.56 0.56 0.59 0.64 0.67 0.69 0.71 0.73 0.83 0.97 0.91 0.84 0.77 0.79
0.51 0.48 0.45 0.46 0.45 0.42 0.39 0.38 0.37 0.35 0.37 0.43 0.50 0.56 0.56 0.56 0.57 0.56 0.54 0.51 0.46 0.45 0.47 0.54 0.62 0.67 0.71 0.75 0.86 0.95 0.93 0.92 0.92
0.52 0.49 0.46 0.47 0.44 0.42 0.39 0.38 0.37 0.34 0.34 0.40 0.48 0.53 0.53 0.54 0.55 0.53 0.53 0.53 0.53 0.53 0.53 0.51 0.54 0.63 0.66 0.69 0.75 0.83 0.87 0.89 0.87
0.53 0.50 0.46 0.47 0.44 0.41 0.40 0.36 0.37 0.36 0.36 0.37 0.45 0.53 0.56 0.56 0.53 0.53 0.54 0.52 0.52 0.52 0.53 0.53 0.52 0.62 0.64 0.64 0.66 0.70 0.76 0.78 0.79
0.53 0.49 0.46 0.46 0.43 0.41 0.39 0.37 0.35 0.35 0.37 0.35 0.38 0.47 0.53 0.51 0.48 0.55 0.54 0.49 0.48 0.49 0.50 0.51 0.53 0.58 0.61 0.61 0.60 0.61 0.66 0.70 0.72
0.52 0.48 0.46 0.47 0.44 0.42 0.39 0.36 0.34 0.36 0.38 0.32 0.32 0.28 0.39 0.44 0.46 0.53 0.54 0.49 0.44 0.45 0.48 0.47 0.52 0.57 0.60 0.58 0.57 0.58 0.63 0.67 0.70
0.52 0.50 0.48 0.48 0.47 0.42 0.40 0.38 0.36 0.33 0.38 0.39 0.32 0.27 0.25 0.31 0.41 0.43 0.46 0.42 0.42 0.43 0.43 0.45 0.50 0.57 0.58 0.55 0.55 0.56 0.59 0.63 0.66
0.53 0.50 0.49 0.49 0.48 0.43 0.42 0.42 0.39 0.38 0.34 0.38 0.40 0.40 0.36 0.28 0.27 0.39 0.42 0.40 0.40 0.42 0.44 0.46 0.51 0.56 0.57 0.55 0.55 0.56 0.57 0.61 0.64
0.52 0.51 0.50 0.49 0.48 0.46 0.45 0.43 0.41 0.42 0.40 0.39 0.39 0.40 0.41 0.42 0.35 0.30 0.34 0.39 0.42 0.45 0.46 0.48 0.52 0.57 0.59 0.58 0.56 0.56 0.57 0.57 0.60
Wind_Speed
10 10 10 11 11 12 12 13 14 15 15 15 15 15 15 14 12 11 11 11 11 12 12 12 13 14 15 16 16 16 15 14 14
9 10 10 11 11 12 13 13 14 15 16 16 16 16 15 14 12 11 11 9 9 11 12 12 12 12 12 13 14 15 16 15 14
8 9 10 11 11 12 13 14 14 15 16 17 17 16 16 15 12 11 9 10 11 12 12 11 11 11 11 11 11 12 13 14 14
8 9 10 10 11 12 13 14 14 15 16 17 17 16 16 14 11 10 9 10 11 11 11 11 10 10 10 10 9 9 10 11 12
8 8 9 10 11 12 13 14 14 15 16 17 17 16 16 14 11 9 9 10 11 11 11 10 10 9 9 9 8 7 7 8 9
8 8 9 10 11 12 13 13 14 15 16 17 16 16 15 14 11 9 10 10 11 10 10 9 9 8 8 7 7 6 6 6 6
8 8 9 10 11 12 12 13 14 15 16 16 16 16 15 14 11 9 9 9 10 10 10 10 9 9 8 7 7 7 6 6 6
8 8 9 10 11 12 12 13 14 14 15 15 15 15 15 14 12 9 9 9 10 10 11 10 9 9 9 7 7 6 6 5 5
8 9 9 10 11 11 12 12 13 14 14 14 15 14 14 13 12 10 9 9 10 10 10 10 9 8 8 8 7 7 5 5 4
9 9 10 10 11 11 12 12 12 13 13 14 14 13 13 13 12 11 10 9 10 10 10 10 10 9 7 8 8 7 7 6 5
9 9 10 10 11 11 11 11 12 13 13 13 13 12 13 12 12 12 11 10 10 10 10 10 9 9 8 8 9 7 7 6 6
9 10 10 10 10 11 11 11 11 12 12 12 12 12 12 12 12 12 11 11 10 10 10 10 9 8 8 8 9 8 7 7 8
10 10 10 10 10 11 11 11 11 12 12 11 11 11 12 12 12 12 11 11 11 11 10 10 9 9 9 9 9 9 8 8 8
10 10 10 10 10 11 11 11 12 12 11 11 11 12 12 12 12 12 12 12 12 12 11 11 10 10 10 10 10 9 9 9 10
11 11 11 11 11 11 11 11 12 12 12 12 12 12 13 13 13 12 12 13 13 13 13 12 12 11 11 11 11 11 12 12 13
13 12 11 11 11 12 12 12 12 13 12 13 13 13 14 14 14 13 14 14 16 14 14 14 13 13 13 13 13 13 13 14 14
14 13 13 12 12 12 12 12 12 13 14 14 14 14 15 15 15 15 15 16 17 16 16 16 15 15 14 15 15 15 15 15 16
15 14 14 14 14 13 13 13 13 14 15 15 16 16 16 17 16 17 17 18 18 17 18 18 17 16 16 17 17 17 17 18 18
17 16 15 15 15 14 14 15 15 15 16 17 17 17 18 18 18 19 19 21 20 20 20 19 18 19 19 19 19 20 21 22 22
18 18 17 16 16 16 16 16 17 18 18 19 19 19 20 20 20 21 21 22 22 23 22 21 21 22 22 22 22 24 25 26 26
Wind_Direction
37 33 30 27 24 22 18 14 10 6 3 360 355 350 345 338 333 328 325 323 319 318 318 316 309 299 287 276 270 266 265 266 264
34 32 29 25 21 17 13 10 7 5 2 359 355 352 348 342 335 331 327 329 331 326 324 322 322 319 308 290 275 266 263 262 263
28 26 23 20 17 13 10 7 5 3 1 358 355 352 350 346 340 336 335 331 330 327 326 323 322 322 319 311 290 273 265 262 261
21 19 17 15 12 9 7 5 3 1 360 358 356 354 352 350 346 342 338 336 334 334 331 329 326 324 325 324 313 287 272 267 266
11 9 9 7 5 4 4 3 1 360 358 358 356 356 355 354 352 350 346 342 341 339 335 332 332 330 329 328 325 312 289 277 269
360 1 1 360 359 359 360 360 359 357 357 358 357 357 357 356 354 351 349 350 351 353 351 347 343 342 338 334 330 325 310 293 280
352 352 353 354 354 355 355 356 356 356 357 358 359 359 359 359 356 353 352 358 6 4 3 356 354 349 343 342 334 325 312 301 292
343 343 344 346 349 350 351 352 354 355 356 358 359 360 1 1 359 354 355 355 351 352 355 355 356 355 356 352 347 338 330 312 297
336 338 339 341 344 347 347 349 351 353 355 357 358 359 1 2 0 355 351 349 353 354 356 356 355 353 355 6 5 359 348 331 318
329 333 335 337 339 343 343 345 348 351 353 355 356 359 1 0 0 357 351 346 345 346 350 352 352 352 346 343 341 336 337 329 316
323 326 329 332 335 338 340 342 344 346 348 352 354 354 358 359 358 358 354 348 343 342 343 345 346 348 345 345 343 333 329 327 322
316 321 323 326 330 334 337 337 340 342 344 346 347 348 351 352 353 352 349 348 346 340 338 338 340 340 341 340 347 336 327 319 315
308 313 318 320 325 329 332 331 334 338 339 339 340 340 341 343 344 345 344 341 340 339 336 333 332 330 332 328 333 345 337 326 320
300 306 311 313 318 323 327 328 329 332 334 333 333 333 334 334 335 337 337 336 332 332 330 326 322 320 321 322 319 321 325 324 321
293 298 304 307 311 317 321 322 326 328 327 327 325 326 326 326 326 326 328 329 326 321 320 318 313 311 313 314 311 310 309 310 310
285 291 297 301 304 310 315 314 320 326 321 320 320 319 319 319 318 316 318 319 324 316 313 311 307 304 305 307 307 307 307 307 307
279 284 290 294 298 303 310 311 310 317 322 316 315 314 313 313 314 311 311 313 316 312 309 307 303 300 298 301 303 303 304 305 305
274 279 284 289 293 296 302 307 307 309 314 318 313 310 310 310 308 307 307 310 309 309 307 303 298 296 295 296 298 300 300 301 301
270 275 280 284 287 290 296 301 304 305 308 308 311 310 307 306 305 304 302 307 304 305 304 301 295 293 292 293 294 296 297 297 297
267 271 276 280 283 286 291 296 300 302 303 304 304 305 304 304 302 301 301 302 300 303 299 297 294 291 290 289 291 294 295 295 295